• In Moldova, Republic
  • List of Countries
  • For 7 days
  • Water Temperature
  • Satellite Maps
  • Weather Map
  • Weather Widgets
  • user-avatar
    Login

    Hourly Weather Djelfa

    Today, 19 June, Tuesday

    Time Temperature Precipitation Wind Pressure Humidity
    00:00 +21°C° 0 mm 5 mps 667 mmHg 42%
    01:00 +20°C° 0 mm 4 mps 666 mmHg 45%
    02:00 +20°C° 0 mm 3 mps 666 mmHg 47%
    03:00 +19°C° 0 mm 3 mps 666 mmHg 49%
    04:00 +19°C° 0 mm 3 mps 666 mmHg 50%
    05:00 +19°C° 0 mm 3 mps 666 mmHg 50%
    06:00 +18°C° 0 mm 3 mps 667 mmHg 50%
    07:00 +20°C° 0 mm 3 mps 667 mmHg 44%
    08:00 +21°C° 0 mm 4 mps 667 mmHg 39%
    09:00 +22°C° 0 mm 4 mps 668 mmHg 33%
    10:00 +23°C° 0 mm 4 mps 668 mmHg 30%
    11:00 +25°C° 0 mm 4 mps 668 mmHg 26%
    12:00 +27°C° 0 mm 4 mps 668 mmHg 22%
    13:00 +27°C° 0 mm 4 mps 668 mmHg 21%
    14:00 +28°C° 0 mm 4 mps 668 mmHg 20%
    15:00 +29°C° 0 mm 4 mps 667 mmHg 19%
    16:00 +28°C° 0 mm 4 mps 667 mmHg 19%
    17:00 +28°C° 0 mm 4 mps 667 mmHg 20%
    18:00 +28°C° 0 mm 5 mps 667 mmHg 21%
    19:00 +27°C° 0 mm 4 mps 667 mmHg 23%
    20:00 +26°C° 0 mm 4 mps 667 mmHg 26%
    21:00 +25°C° 0 mm 4 mps 667 mmHg 28%
    22:00 +25°C° 0 mm 4 mps 667 mmHg 33%
    23:00 +23°C° 0 mm 4 mps 667 mmHg 37%

    Tomorrow, 20 June, Wednesday

    Time Temperature Precipitation Wind Pressure Humidity
    00:00 +22°C° 0 mm 4 mps 667 mmHg 41%
    01:00 +21°C° 0 mm 3 mps 667 mmHg 45%
    02:00 +21°C° 0 mm 3 mps 667 mmHg 49%
    03:00 +20°C° 0 mm 2 mps 667 mmHg 52%
    04:00 +20°C° 0 mm 3 mps 667 mmHg 52%
    05:00 +20°C° 0 mm 3 mps 667 mmHg 52%
    06:00 +20°C° 0 mm 3 mps 667 mmHg 52%
    07:00 +22°C° 0 mm 3 mps 667 mmHg 47%
    08:00 +24°C° 0 mm 3 mps 668 mmHg 42%
    09:00 +25°C° 0 mm 3 mps 668 mmHg 37%
    10:00 +26°C° 0 mm 3 mps 668 mmHg 34%
    11:00 +27°C° 0 mm 2 mps 668 mmHg 30%
    12:00 +28°C° 0 mm 1 mps 668 mmHg 27%
    13:00 +28°C° 0 mm 1 mps 668 mmHg 26%
    14:00 +29°C° 0 mm 1 mps 668 mmHg 24%
    15:00 +29°C° 0 mm 1 mps 667 mmHg 23%
    16:00 +29°C° 0 mm 2 mps 667 mmHg 23%
    17:00 +29°C° 0 mm 2 mps 667 mmHg 22%
    18:00 +29°C° 0 mm 2 mps 667 mmHg 22%
    19:00 +28°C° 0 mm 3 mps 667 mmHg 23%
    20:00 +28°C° 0 mm 3 mps 667 mmHg 25%
    21:00 +27°C° 0 mm 4 mps 667 mmHg 26%
    22:00 +26°C° 0 mm 5 mps 667 mmHg 29%
    23:00 +24°C° 0 mm 6 mps 667 mmHg 31%

    Day after tomorrow, 21 June, Thursday

    Time Temperature Precipitation Wind Pressure Humidity
    00:00 +24°C° 0 mm 7 mps 667 mmHg 34%
    01:00 +23°C° 0 mm 6 mps 667 mmHg 36%
    02:00 +22°C° 0 mm 6 mps 667 mmHg 39%
    03:00 +22°C° 0 mm 6 mps 666 mmHg 42%
    04:00 +22°C° 0 mm 6 mps 666 mmHg 42%
    05:00 +22°C° 0 mm 6 mps 667 mmHg 42%
    06:00 +22°C° 0 mm 6 mps 667 mmHg 42%
    07:00 +24°C° 0 mm 6 mps 667 mmHg 37%
    08:00 +26°C° 0 mm 7 mps 667 mmHg 33%
    09:00 +28°C° 0 mm 7 mps 668 mmHg 29%
    10:00 +29°C° 0 mm 6 mps 668 mmHg 26%
    11:00 +30°C° 0 mm 6 mps 668 mmHg 23%
    12:00 +32°C° 0 mm 5 mps 668 mmHg 20%
    13:00 +33°C° 0 mm 5 mps 668 mmHg 19%
    14:00 +33°C° 0 mm 5 mps 667 mmHg 17%
    15:00 +34°C° 0 mm 5 mps 667 mmHg 16%
    16:00 +34°C° 0 mm 5 mps 667 mmHg 16%
    17:00 +33°C° 0 mm 5 mps 667 mmHg 17%
    18:00 +33°C° 0 mm 5 mps 666 mmHg 18%
    19:00 +30°C° 0 mm 4 mps 667 mmHg 22%
    20:00 +29°C° 0 mm 4 mps 667 mmHg 25%
    21:00 +28°C° 0 mm 3 mps 667 mmHg 29%
    22:00 +27°C° 0 mm 2 mps 667 mmHg 32%
    23:00 +26°C° 0 mm 2 mps 667 mmHg 36%

    22 June, Friday

    Time Temperature Precipitation Wind Pressure Humidity
    00:00 +26°C° 0 mm 1 mps 666 mmHg 39%
    01:00 +25°C° 0 mm 1 mps 666 mmHg 41%
    02:00 +24°C° 0 mm 1 mps 666 mmHg 43%
    03:00 +24°C° 0 mm 1 mps 665 mmHg 45%
    04:00 +24°C° 0 mm 1 mps 666 mmHg 43%
    05:00 +25°C° 0 mm 1 mps 666 mmHg 42%
    06:00 +25°C° 0 mm 2 mps 666 mmHg 40%
    07:00 +26°C° 0 mm 3 mps 667 mmHg 37%
    08:00 +28°C° 0 mm 4 mps 667 mmHg 33%
    09:00 +29°C° 0 mm 6 mps 668 mmHg 30%
    10:00 +30°C° 0 mm 5 mps 668 mmHg 27%
    11:00 +32°C° 0 mm 5 mps 667 mmHg 25%
    12:00 +32°C° 0 mm 5 mps 667 mmHg 23%
    13:00 +33°C° 0 mm 5 mps 667 mmHg 20%
    14:00 +34°C° 0 mm 5 mps 667 mmHg 18%
    15:00 +35°C° 0 mm 5 mps 667 mmHg 16%
    16:00 +35°C° 0 mm 5 mps 666 mmHg 17%
    17:00 +35°C° 0 mm 4 mps 666 mmHg 17%
    18:00 +34°C° 0 mm 4 mps 666 mmHg 17%
    19:00 +33°C° 0.2 mm 4 mps 666 mmHg 20%
    20:00 +32°C° 0.2 mm 4 mps 667 mmHg 23%
    21:00 +29°C° 0.2 mm 4 mps 667 mmHg 26%
    22:00 +29°C° 0.6 mm 4 mps 667 mmHg 28%
    23:00 +28°C° 0.6 mm 5 mps 667 mmHg 31%

    23 June, Saturday

    Time Temperature Precipitation Wind Pressure Humidity
    00:00 +27°C° 0.6 mm 5 mps 666 mmHg 33%
    01:00 +27°C° 0 mm 5 mps 666 mmHg 33%
    02:00 +26°C° 0 mm 4 mps 666 mmHg 34%
    03:00 +26°C° 0 mm 3 mps 666 mmHg 34%
    04:00 +26°C° 0 mm 3 mps 666 mmHg 33%
    05:00 +26°C° 0 mm 3 mps 666 mmHg 33%
    06:00 +27°C° 0 mm 2 mps 667 mmHg 32%
    07:00 +28°C° 0 mm 3 mps 667 mmHg 29%
    08:00 +30°C° 0 mm 3 mps 667 mmHg 25%
    09:00 +33°C° 0 mm 3 mps 668 mmHg 21%
    10:00 +34°C° 0 mm 4 mps 668 mmHg 19%
    11:00 +35°C° 0 mm 4 mps 668 mmHg 17%
    12:00 +36°C° 0 mm 4 mps 668 mmHg 15%
    13:00 +36°C° 0 mm 4 mps 667 mmHg 14%
    14:00 +37°C° 0 mm 4 mps 667 mmHg 13%
    15:00 +37°C° 0 mm 4 mps 667 mmHg 12%
    16:00 +36°C° 0.3 mm 5 mps 666 mmHg 16%
    17:00 +34°C° 0.3 mm 6 mps 666 mmHg 19%
    18:00 +33°C° 0.3 mm 7 mps 666 mmHg 22%
    19:00 +32°C° 0.1 mm 6 mps 666 mmHg 25%
    20:00 +30°C° 0.1 mm 5 mps 666 mmHg 27%
    21:00 +29°C° 0.1 mm 5 mps 667 mmHg 30%
    22:00 +29°C° 0 mm 6 mps 666 mmHg 31%
    23:00 +28°C° 0 mm 7 mps 666 mmHg 31%

    24 June, Sunday

    Time Temperature Precipitation Wind Pressure Humidity
    00:00 +28°C° 0 mm 8 mps 666 mmHg 32%
    01:00 +28°C° 0 mm 8 mps 666 mmHg 32%
    02:00 +28°C° 0 mm 8 mps 666 mmHg 31%
    03:00 +28°C° 0 mm 9 mps 666 mmHg 31%
    04:00 +28°C° 0 mm 9 mps 666 mmHg 31%
    05:00 +28°C° 0 mm 9 mps 666 mmHg 31%
    06:00 +27°C° 0 mm 10 mps 666 mmHg 31%
    07:00 +29°C° 0 mm 10 mps 666 mmHg 28%
    08:00 +31°C° 0 mm 11 mps 666 mmHg 26%
    09:00 +32°C° 0 mm 11 mps 667 mmHg 23%
    10:00 +34°C° 0 mm 11 mps 667 mmHg 19%
    11:00 +37°C° 0 mm 11 mps 667 mmHg 16%
    12:00 +39°C° 0 mm 11 mps 667 mmHg 12%
    13:00 +41°C° 0 mm 11 mps 666 mmHg 11%
    14:00 +40°C° 0 mm 10 mps 666 mmHg 10%
    15:00 +42°C° 0 mm 9 mps 665 mmHg 9%
    16:00 +40°C° 0 mm 9 mps 665 mmHg 9%
    17:00 +40°C° 0 mm 8 mps 665 mmHg 9%
    18:00 +40°C° 0 mm 7 mps 665 mmHg 9%
    19:00 +36°C° 0 mm 7 mps 664 mmHg 17%
    20:00 +34°C° 0 mm 7 mps 664 mmHg 24%
    21:00 +32°C° 0 mm 6 mps 664 mmHg 32%
    22:00 +30°C° 0 mm 6 mps 664 mmHg 36%
    23:00 +29°C° 0 mm 6 mps 664 mmHg 40%
    Show more